Wind_Speed
24 25 29 33 33 32 32 31 30 28 24 21 21 20 20 20 19 18 17 17 20 20 20 19 19 19 17 16 16 16 16 17 17 17 18 18 19 20 21 22 24 25 24 23 23 23 23 23 23 22 22 22 22 21 21 20 20 20 19 20 19 19 20 20 18 17 16 15 14 12 11 11 11 12 12 13 13 13 14 15 14 14 15 15 14 15
25 28 31 32 30 29 30 30 29 29 27 24 22 21 20 21 20 17 17 17 19 20 20 18 19 20 19 19 18 17 18 19 19 18 18 19 19 20 21 21 22 24 25 25 26 26 26 26 25 25 24 23 23 22 21 20 20 20 20 20 20 20 20 20 20 18 16 15 14 13 12 11 12 12 12 12 12 13 15 15 14 14 15 15 16 16
27 31 30 28 29 28 28 29 30 30 29 27 23 21 21 21 21 18 16 18 19 18 18 18 20 20 20 20 19 19 19 19 19 19 19 19 20 20 21 20 20 23 25 27 28 28 28 28 27 27 27 25 25 23 23 22 21 21 20 20 19 20 20 20 20 19 16 15 15 14 14 13 13 14 13 13 13 13 15 15 13 14 15 15 16 16
29 30 29 27 27 29 29 29 30 31 30 30 26 23 22 21 21 19 15 16 18 17 16 17 19 20 20 21 22 21 20 19 19 20 19 20 21 21 21 20 19 20 24 27 29 28 27 28 28 29 29 28 27 26 24 23 22 22 20 20 19 19 20 20 19 19 17 16 16 16 16 16 15 15 15 14 14 14 15 15 13 13 14 14 14 12
27 25 26 27 26 29 31 29 29 32 31 31 29 26 23 22 21 19 15 16 16 17 18 18 18 20 21 22 23 22 21 21 20 20 21 21 23 22 21 21 20 20 21 25 28 28 27 28 28 28 29 29 29 28 26 24 23 22 21 20 19 19 20 20 19 18 18 18 18 18 18 18 18 17 15 14 13 13 13 13 12 12 12 11 10 8
27 22 23 28 29 29 32 31 30 31 31 31 31 29 25 21 20 20 17 17 16 19 22 22 17 17 21 23 23 23 23 24 23 22 23 22 23 25 23 22 22 21 21 23 25 26 25 26 27 27 27 27 28 28 26 24 23 22 21 20 19 20 20 20 19 19 19 20 20 20 19 19 19 18 16 14 13 13 12 12 11 11 11 10 8 6
27 22 23 28 30 29 31 33 31 30 31 31 30 30 28 24 22 23 21 19 19 19 21 23 18 16 19 22 23 24 23 24 25 24 24 23 23 25 25 23 23 22 22 22 22 23 24 26 27 27 27 26 26 26 24 23 23 22 21 20 20 20 21 21 20 20 21 21 21 20 19 18 18 17 17 16 15 14 13 11 11 10 10 9 8 7
26 26 26 26 29 31 32 34 32 31 32 31 27 26 29 28 27 26 22 20 20 18 19 22 22 19 19 21 22 25 25 24 25 25 24 24 22 22 23 21 22 23 23 23 21 20 22 23 24 25 25 24 24 24 23 23 23 22 21 20 20 21 21 21 21 21 21 21 20 20 19 19 18 17 17 16 16 15 13 12 12 10 9 9 9 7
25 29 30 27 29 32 33 34 31 29 31 30 25 23 25 27 28 28 25 22 21 19 20 25 26 20 18 21 20 22 26 25 26 26 24 24 22 22 23 21 20 21 21 23 22 20 20 20 20 21 23 22 23 23 23 23 22 22 22 21 21 22 22 22 22 22 22 21 20 20 20 20 19 18 16 15 14 15 14 13 13 12 10 10 9 7
22 28 29 28 31 32 30 30 30 30 29 28 25 24 24 25 27 29 27 25 24 22 22 26 27 19 15 22 22 20 24 25 25 25 24 23 23 23 24 23 23 22 20 21 21 20 20 19 18 19 21 21 22 24 24 23 23 23 23 23 23 24 23 23 23 23 22 21 21 21 21 21 20 19 17 15 14 14 14 14 14 13 12 11 10 8
20 22 27 29 30 30 28 27 29 31 28 26 26 28 28 25 25 26 28 30 24 19 23 28 29 22 14 20 25 22 23 24 24 23 22 22 23 23 21 19 21 25 25 22 20 21 19 20 20 19 20 21 21 24 25 24 24 24 24 24 25 25 24 23 23 23 22 21 21 22 22 21 21 20 18 17 15 15 16 16 15 14 14 13 12 10
23 20 25 30 29 27 28 28 29 29 29 27 26 29 29 24 22 24 29 30 19 14 23 28 28 27 19 18 23 23 22 23 23 23 21 21 22 23 20 16 15 20 29 26 21 22 21 21 22 19 20 21 22 25 25 25 25 25 25 25 26 26 25 24 24 23 22 22 22 22 22 21 21 20 19 17 17 17 18 17 16 16 15 14 14 12
30 28 23 25 28 29 29 30 30 28 31 30 27 30 29 20 17 18 20 21 17 18 24 26 27 27 24 22 23 22 20 21 23 24 21 20 21 21 19 19 14 14 26 28 19 19 21 20 22 21 20 21 22 24 24 23 24 25 25 25 26 26 25 24 24 23 23 22 22 22 22 22 21 20 19 19 19 19 19 19 18 17 16 16 15 13
28 30 28 26 27 31 32 33 32 31 32 33 32 34 29 17 11 12 13 15 16 21 25 26 26 24 23 25 26 26 22 19 21 23 22 19 20 19 18 22 20 15 23 27 18 16 19 18 19 21 21 21 21 22 22 22 23 24 24 25 25 25 24 24 23 23 22 22 22 22 22 22 21 21 20 20 21 21 20 20 20 19 18 17 16 14
22 24 33 33 28 29 35 36 33 30 31 34 34 34 31 24 17 13 12 13 15 19 24 26 24 21 22 23 23 26 26 21 18 20 22 21 19 18 16 20 24 20 21 26 20 17 18 17 18 19 20 20 20 21 22 22 22 23 22 22 23 24 23 23 23 23 22 22 22 23 23 23 22 21 21 22 23 23 22 21 20 19 19 18 17 17
23 22 28 32 28 27 33 36 34 30 29 31 32 34 35 33 28 21 17 20 22 20 20 24 26 25 26 22 17 19 23 24 21 20 23 23 20 19 17 19 24 23 20 22 20 18 19 18 18 18 19 20 20 21 22 22 22 21 19 19 20 21 21 21 22 22 22 22 22 23 23 23 23 22 22 23 24 24 23 22 21 20 20 20 19 19
22 22 22 27 30 29 30 32 35 34 30 27 32 40 39 34 32 27 21 25 25 17 17 25 27 27 27 25 23 21 20 23 24 23 25 24 21 19 19 20 22 22 20 21 20 19 20 20 19 19 19 20 20 22 22 21 20 19 17 16 17 20 21 21 21 22 22 23 23 23 24 24 24 23 23 24 25 24 24 23 22 21 21 21 22 21
19 19 20 26 30 30 28 28 32 37 34 28 31 37 36 31 33 30 21 19 19 13 16 26 30 27 24 22 25 27 26 25 25 25 25 24 22 20 20 21 21 20 20 20 18 19 20 20 20 20 20 20 20 21 22 20 19 19 18 16 17 18 19 19 20 21 23 24 23 23 24 25 25 24 24 25 25 25 25 24 22 22 22 23 24 24
18 18 18 24 28 27 27 26 29 36 39 36 30 28 31 30 31 34 25 16 15 12 12 22 29 29 27 24 21 24 28 28 28 29 26 24 23 21 20 20 19 19 21 20 18 20 21 21 22 21 20 20 20 21 22 21 20 20 20 18 18 18 18 18 20 22 23 23 24 24 25 26 26 25 25 26 26 26 25 24 23 24 25 26 27 27
18 18 17 19 23 23 26 29 30 33 38 41 36 29 32 33 33 35 29 22 18 13 11 18 22 23 28 28 23 22 25 27 28 31 29 26 25 24 21 21 20 18 18 19 18 19 22 22 23 22 21 20 20 21 22 23 22 22 21 20 20 20 20 21 22 22 22 23 24 24 25 26 26 27 26 27 27 26 25 25 25 26 27 28 29 29
20 18 18 18 22 25 28 33 35 33 34 40 43 38 32 31 32 31 31 34 28 15 10 12 14 21 28 27 24 22 21 22 25 29 30 28 26 23 19 19 22 21 18 19 17 18 20 21 21 22 22 22 22 22 22 23 23 23 22 21 21 21 22 23 23 23 23 23 24 25 25 25 26 27 27 27 27 26 25 25 27 28 30 30 30 31
25 19 18 20 24 29 31 32 33 33 32 34 40 43 38 31 28 24 24 34 36 25 19 14 12 20 26 25 25 23 21 21 21 23 25 25 23 20 18 17 20 23 22 20 17 15 18 19 20 22 24 24 24 23 23 25 25 25 23 22 22 23 23 23 24 24 24 24 25 25 25 25 25 26 26 27 27 27 26 27 28 30 31 32 32 33
27 21 19 21 23 25 26 27 29 31 32 32 33 39 42 37 33 25 19 26 33 31 32 27 20 21 23 20 20 21 23 25 23 22 23 22 20 19 20 18 16 21 25 22 16 13 15 19 21 23 26 27 27 25 24 25 27 26 24 23 24 24 24 24 24 24 25 25 26 25 24 24 24 25 25 26 26 26 26 27 29 30 31 33 34 35
27 25 22 22 22 23 22 23 27 28 30 33 34 35 40 42 41 33 25 26 30 31 32 26 20 24 28 23 18 17 20 24 26 26 26 24 22 20 19 17 16 23 26 20 17 14 12 17 22 25 28 29 27 26 25 26 28 27 26 24 24 24 24 24 24 25 26 26 26 26 25 24 25 24 24 24 25 25 25 26 28 29 32 35 36 36
29 28 25 20 16 18 20 19 24 29 31 33 35 34 36 41 44 40 33 30 29 30 32 24 17 23 29 28 27 22 18 21 26 28 29 28 25 22 18 16 18 25 24 18 19 18 13 16 22 26 28 28 28 26 24 26 28 28 27 26 25 25 24 25 25 26 26 26 26 26 25 25 25 23 22 22 23 24 24 25 27 30 32 35 37 37
26 28 28 23 16 13 16 17 22 28 31 31 33 34 35 37 40 40 39 35 29 28 33 31 25 25 26 27 31 28 20 19 21 22 24 27 28 26 21 17 19 24 21 18 19 18 15 16 21 25 28 28 28 26 23 25 28 28 28 27 26 26 25 25 26 27 27 26 26 26 26 25 24 23 22 22 23 24 24 24 27 31 32 32 34 37
23 27 31 30 26 21 20 20 20 23 27 28 30 33 35 35 36 38 39 39 35 29 32 36 32 29 28 27 30 31 27 23 22 20 20 22 25 26 22 21 24 26 24 22 21 19 18 17 20 24 28 29 29 26 25 26 27 27 27 27 27 27 27 26 27 28 28 27 27 27 27 26 24 23 23 23 23 24 24 24 27 31 32 31 33 36
21 26 30 33 32 29 26 23 21 23 26 27 27 30 33 34 35 38 39 39 37 31 30 35 34 33 35 33 30 31 33 31 28 26 24 22 21 20 20 23 28 29 26 24 24 22 18 17 19 22 26 30 30 27 26 27 27 27 26 24 25 27 27 27 28 29 30 28 28 28 26 24 23 22 23 23 24 25 26 26 28 31 33 32 33 35
20 22 25 29 30 32 32 29 25 26 27 27 26 28 31 33 35 38 38 38 38 34 30 31 32 34 38 39 36 32 30 30 30 28 27 27 24 22 22 23 27 29 29 28 26 21 18 17 19 21 24 29 31 29 28 28 28 28 26 24 25 27 27 27 28 30 30 29 28 27 25 23 23 23 24 26 27 28 28 29 29 31 33 33 32 33
23 22 22 24 27 29 31 32 31 30 29 29 30 31 31 32 34 37 38 37 38 39 35 31 31 32 33 36 39 38 33 29 26 25 28 29 27 26 25 24 25 25 28 31 28 22 18 18 19 21 23 28 32 31 29 30 29 29 27 25 26 28 28 28 28 28 29 28 27 26 24 24 24 26 27 28 29 30 30 30 29 30 32 32 31 32
28 26 22 23 26 26 27 31 32 33 33 33 33 33 32 32 33 36 38 38 37 38 37 36 35 34 31 29 33 39 41 37 30 25 26 29 29 28 26 25 25 24 25 31 31 24 19 20 20 22 25 27 32 33 31 31 30 29 28 27 27 28 28 28 27 26 26 26 26 26 25 26 27 28 29 29 30 30 29 29 29 29 31 32 32 34
30 28 23 23 26 28 28 28 30 33 34 35 37 36 34 34 34 35 36 36 37 36 36 38 39 37 32 28 27 31 38 42 41 34 28 26 26 26 26 25 25 26 27 31 32 26 22 22 22 24 26 28 32 35 33 32 32 30 29 29 28 28 28 28 27 25 24 25 25 26 27 28 29 29 29 29 29 28 28 28 29 29 30 32 33 35
30 28 26 24 25 28 28 26 29 30 27 31 39 41 38 37 36 37 36 35 36 37 36 38 39 36 32 31 30 30 32 37 42 43 39 35 31 30 29 27 27 27 26 31 34 31 29 30 27 25 27 28 32 37 36 34 33 32 31 31 30 29 30 30 28 25 24 25 26 27 29 29 29 29 28 27 27 28 28 29 28 28 28 30 31 33
32 28 26 26 25 26 25 26 28 24 21 28 36 37 37 38 37 37 38 37 36 37 36 36 36 33 31 33 35 36 35 35 38 42 45 45 43 41 39 37 37 33 29 32 36 34 33 34 30 28 28 28 32 39 39 36 36 34 33 32 30 30 31 30 29 27 26 27 28 28 29 28 28 27 27 27 28 29 28 27 25 24 25 27 29 31
32 28 25 26 26 24 23 24 21 18 22 27 27 27 31 36 37 38 39 38 37 37 37 36 35 33 31 31 33 35 36 37 38 39 41 43 44 44 43 42 42 39 33 33 37 38 37 34 30 31 32 30 35 41 41 39 38 37 35 33 32 32 32 31 30 29 29 29 29 29 28 27 27 27 27 27 27 25 24 22 21 21 23 26 28 31
27 27 24 24 24 21 20 21 17 17 21 22 19 22 26 27 28 30 32 35 36 36 37 37 35 33 32 32 32 31 30 32 35 37 38 40 40 41 42 42 42 40 37 37 42 46 44 36 30 32 34 32 37 43 42 40 40 39 38 36 35 34 33 33 33 31 31 30 29 28 27 27 27 27 26 24 23 21 20 20 20 21 23 25 27 30
24 25 23 23 23 21 22 23 21 20 21 19 16 14 16 16 15 15 20 26 29 29 32 35 35 33 32 31 31 30 27 26 29 33 35 37 37 38 38 39 40 38 39 42 46 48 45 37 30 32 35 34 39 44 44 43 42 41 40 38 37 37 36 35 34 32 31 30 28 27 27 26 26 25 23 22 21 20 20 21 22 22 24 26 27 29
27 26 24 22 21 21 22 21 18 15 16 17 13 7 7 11 11 11 18 25 28 24 23 28 32 33 33 32 30 28 28 29 31 32 32 31 32 33 34 36 35 32 36 46 48 44 40 35 30 29 31 34 41 46 45 44 43 42 41 40 40 39 37 36 34 33 32 30 28 27 26 25 24 23 23 22 21 21 22 23 23 24 26 27 28 29
30 28 27 25 22 22 22 18 15 13 14 17 17 12 11 12 11 11 18 25 28 29 26 27 29 28 29 32 32 30 31 34 35 33 28 27 28 29 31 34 35 33 37 47 48 41 37 34 30 26 26 30 40 46 45 43 43 42 42 41 40 39 37 36 35 33 31 29 27 26 24 24 23 23 23 23 23 23 23 23 24 25 27 28 28 28
34 30 30 30 27 26 24 21 19 18 15 14 17 14 10 10 10 10 12 15 19 24 30 33 33 29 27 27 30 32 34 36 36 31 26 26 28 28 30 33 35 39 42 45 43 39 37 35 32 29 27 27 34 43 45 43 42 42 41 40 39 38 37 36 34 32 30 28 26 24 23 22 22 23 24 24 24 23 23 24 26 27 28 28 28 28
37 35 32 31 31 29 27 24 23 21 17 16 18 13 7 9 12 14 15 15 14 16 23 29 34 35 33 29 28 31 34 35 33 29 27 27 27 27 32 34 33 38 43 43 40 38 37 36 35 33 30 27 29 39 45 44 42 41 40 40 39 38 37 35 33 31 29 26 24 23 22 22 23 23 24 25 24 23 24 27 29 30 29 28 28 28
36 35 32 32 31 30 29 27 24 21 20 21 20 16 14 14 13 13 16 17 19 19 20 22 27 34 37 34 31 31 31 31 30 29 31 34 32 30 33 35 34 38 42 42 40 38 38 38 37 35 33 29 28 36 44 44 42 41 41 40 40 39 36 34 32 30 27 24 22 21 21 21 22 22 23 24 24 24 26 29 31 31 29 28 28 29
36 33 32 32 29 27 28 26 20 16 18 19 16 16 19 20 18 18 20 19 21 24 23 23 25 27 30 31 31 33 31 26 26 31 37 41 40 37 35 35 36 38 41 42 42 40 40 41 40 37 35 31 30 37 44 44 43 42 42 41 40 37 35 33 31 27 23 20 19 20 21 20 20 21 23 23 24 26 29 30 31 30 28 28 29 29
33 31 30 29 27 26 27 23 16 13 13 16 16 17 20 24 25 26 25 23 24 25 25 26 28 28 28 26 25 29 29 23 24 35 40 43 46 47 43 39 38 37 37 39 41 42 41 41 38 35 32 31 33 40 44 45 44 43 42 39 37 35 33 31 28 23 20 20 21 21 21 21 21 22 23 25 26 28 28 28 28 28 28 29 29 29
24 26 26 25 23 23 22 18 13 10 9 13 19 21 21 25 30 29 27 27 28 28 28 28 29 29 29 26 21 21 27 31 35 40 39 39 44 47 44 42 40 37 35 37 40 42 41 38 35 34 33 33 37 43 44 43 41 40 38 37 35 33 30 27 24 21 22 25 25 23 21 21 22 23 24 25 26 26 26 26 27 28 28 29 29 29
16 18 20 19 18 18 18 14 13 11 9 10 16 19 16 18 25 28 27 26 26 26 25 25 25 23 23 22 17 14 20 29 35 36 34 36 41 42 41 41 41 37 34 35 37 38 36 33 33 33 34 36 41 43 43 40 36 35 35 34 33 31 26 22 21 22 25 27 25 22 21 21 22 23 24 24 25 26 26 26 27 27 27 28 28 29
15 18 20 17 15 16 16 12 11 12 11 10 14 19 18 16 20 24 24 19 17 16 13 11 12 13 12 13 13 13 14 18 21 23 26 30 34 33 32 35 39 36 30 29 30 30 30 31 32 33 36 39 41 40 38 37 35 33 32 30 28 26 23 22 22 24 26 26 23 21 21 21 21 22 23 24 25 26 27 27 26 26 26 26 27 28
14 17 20 18 15 14 13 12 13 16 16 14 16 21 24 23 22 22 19 12 4 0 1 3 5 6 5 6 9 11 12 14 14 14 15 16 19 20 19 22 29 31 30 29 30 31 32 34 36 38 39 40 39 37 35 33 31 28 27 25 24 23 22 23 25 27 28 26 22 20 21 22 22 24 25 26 26 26 26 26 25 25 25 25 27 28
14 13 14 14 12 11 11 12 14 17 18 18 17 18 19 21 23 24 23 16 7 12 11 11 11 10 11 13 14 14 16 17 15 15 15 14 16 18 20 21 25 29 31 32 34 35 36 36 36 36 36 35 34 32 30 29 27 25 24 23 22 21 21 22 24 25 24 22 21 21 22 23 25 26 27 26 25 25 26 25 24 24 25 25 26 26
13 11 10 10 10 11 11 11 11 11 13 15 14 12 13 16 19 23 24 20 17 19 19 18 14 11 14 17 17 18 21 21 19 19 22 22 23 26 28 30 31 33 34 34 34 34 33 33 32 31 30 29 28 26 24 23 23 22 21 19 18 17 16 16 18 19 19 21 23 23 23 24 25 26 26 25 24 24 25 24 23 24 24 24 25 25
9 9 9 6 6 10 11 12 13 12 12 13 12 12 13 16 18 20 19 20 23 23 23 24 23 20 20 22 21 21 24 26 27 27 29 30 30 31 33 34 34 34 34 33 31 29 27 26 25 25 23 22 22 20 19 17 16 16 15 15 14 13 13 14 17 18 18 21 24 24 22 23 24 25 25 24 23 23 23 22 22 23 23 23 24 23
Wind_Direction
202 206 209 211 212 210 211 213 216 220 225 230 229 225 224 229 227 221 215 197 195 207 211 212 212 214 211 199 201 204 203 205 206 206 206 207 210 214 220 221 222 226 227 225 225 228 231 230 230 232 231 231 232 231 232 233 232 232 234 232 231 231 230 229 228 232 235 234 234 235 235 238 239 239 239 238 238 240 244 249 253 257 261 267 270 272
202 213 215 213 213 212 213 215 217 221 227 232 234 230 226 230 231 222 215 201 193 206 213 214 217 217 217 212 209 210 210 209 208 208 208 209 212 215 221 225 225 226 227 228 229 227 230 233 233 234 235 236 236 237 238 238 236 237 237 236 235 234 234 233 231 233 237 234 231 231 229 229 232 235 236 235 235 237 244 250 253 257 261 265 267 268
205 217 217 213 215 215 216 217 219 222 226 230 233 234 228 226 228 228 220 200 188 201 213 216 221 220 218 217 215 213 213 214 212 212 213 213 214 216 221 227 228 228 227 227 231 231 231 234 236 237 238 238 239 240 240 238 237 238 240 239 239 239 238 236 233 234 236 233 228 226 225 222 224 230 231 232 235 239 246 251 252 256 260 263 264 265
208 217 216 212 215 216 217 218 219 221 225 228 229 230 231 224 222 226 214 192 186 200 216 221 225 225 221 219 220 216 215 217 217 216 218 219 221 220 221 229 235 236 232 230 233 235 233 236 239 240 240 240 241 242 241 239 238 240 242 242 243 242 241 238 237 235 234 231 227 225 223 219 220 227 230 233 237 241 247 251 254 257 259 262 263 262
215 217 213 211 214 215 217 218 217 219 222 226 227 227 229 226 224 224 203 188 199 212 219 224 230 231 224 220 220 218 218 220 220 220 220 221 225 227 225 228 237 243 240 234 235 237 234 235 239 242 243 243 243 244 244 242 242 243 244 243 242 241 240 240 239 237 233 230 227 225 223 219 220 226 228 231 235 240 246 252 258 261 260 257 253 247
222 217 211 211 213 214 216 219 216 217 221 224 225 225 228 228 226 228 214 198 211 218 217 221 231 235 228 224 222 219 219 220 220 221 222 223 225 230 234 234 236 242 243 237 235 238 237 235 238 241 242 242 242 244 244 243 244 246 244 241 239 238 238 239 239 237 234 232 229 227 224 221 222 227 228 228 231 235 241 245 250 255 252 239 225 214
223 215 213 212 212 213 215 219 218 216 222 224 223 221 227 232 231 234 229 216 219 222 216 218 231 239 232 228 224 222 223 220 219 221 223 226 227 230 239 244 241 241 243 242 238 237 237 236 236 238 239 240 240 242 242 242 243 244 242 237 234 235 238 240 239 237 235 234 231 228 224 221 222 225 227 227 227 227 229 233 235 236 231 213 198 196
219 214 213 211 210 213 214 218 217 215 222 226 222 219 223 229 233 237 237 231 228 225 219 219 228 239 238 233 225 221 223 219 218 221 221 226 231 235 240 244 244 244 243 245 245 242 240 240 239 238 238 237 237 238 237 239 240 241 239 235 233 235 238 240 239 237 236 235 232 227 222 219 218 220 225 228 229 225 221 220 217 212 210 200 194 196
216 215 213 208 209 213 214 216 214 214 221 225 223 223 223 225 231 236 239 239 233 227 228 224 223 232 238 237 230 218 218 218 217 220 221 225 232 238 240 241 243 246 247 247 249 247 245 247 247 241 239 235 233 233 232 234 237 237 236 233 232 233 235 237 237 237 235 233 230 224 219 217 215 216 221 225 229 227 218 211 205 200 202 201 197 199
219 218 213 211 213 215 215 214 213 215 221 225 225 229 229 224 227 232 237 240 234 228 232 227 220 225 235 233 229 219 217 218 217 219 222 225 228 234 237 238 238 240 246 249 250 249 246 248 250 245 241 237 231 230 230 229 232 233 231 230 230 231 232 233 234 235 233 230 226 221 216 214 213 215 216 216 221 221 212 205 201 200 202 203 200 205
225 218 214 217 216 214 215 215 218 219 222 226 226 231 234 230 227 231 233 236 238 232 233 230 220 219 231 232 226 222 221 221 218 219 222 223 228 235 236 237 237 235 240 246 246 248 245 243 247 244 239 237 232 231 230 227 228 229 228 227 228 229 230 230 231 232 231 229 224 219 215 212 212 214 215 214 215 212 207 204 203 203 205 206 209 215
225 218 213 218 218 213 215 219 220 219 220 223 223 227 232 230 231 233 229 229 237 238 234 233 226 221 228 232 227 226 225 221 217 219 222 220 225 239 245 244 238 231 238 244 242 243 243 239 241 240 234 233 231 232 232 229 228 228 227 226 226 227 227 226 227 228 229 226 222 217 213 211 211 212 213 214 213 208 207 208 208 210 212 214 218 224
223 223 217 217 218 214 213 218 218 214 216 217 218 223 225 222 223 227 225 223 228 235 234 234 234 230 229 232 233 232 226 220 216 216 221 220 223 237 244 244 246 232 233 238 236 238 243 241 240 239 236 233 232 233 235 234 231 229 228 226 225 225 225 224 224 224 225 223 220 216 212 210 210 211 211 212 212 209 209 212 214 217 219 221 224 231
218 224 220 216 217 214 211 213 212 208 210 212 212 217 220 217 217 218 220 226 228 230 232 235 240 240 235 236 236 231 227 223 215 213 217 220 224 231 228 234 248 247 233 232 227 231 241 241 239 239 238 238 239 237 237 237 234 232 231 226 224 224 224 223 222 221 221 219 217 215 212 211 211 211 212 212 212 212 213 216 220 222 223 225 230 238
214 219 216 213 213 212 210 213 213 208 210 212 212 215 218 215 219 223 216 223 232 231 229 230 236 239 238 238 232 225 226 226 219 213 216 221 228 232 227 233 246 250 237 228 223 227 235 235 234 234 237 240 242 242 240 239 236 234 233 229 225 224 224 223 220 219 218 216 216 214 212 213 214 213 213 213 214 216 218 221 224 226 227 229 235 242
220 225 217 212 211 211 210 211 212 212 213 212 211 216 219 215 221 234 232 227 233 237 233 230 231 233 238 242 232 221 223 225 225 221 221 227 233 234 230 234 249 258 241 220 217 225 230 231 229 228 232 236 240 242 242 240 237 235 235 231 227 225 224 223 221 219 217 215 216 215 214 216 217 216 216 216 217 221 223 225 228 230 231 235 240 243
221 229 220 211 210 211 212 210 209 213 214 208 209 218 221 217 222 235 241 235 235 239 233 232 236 233 233 238 232 226 225 222 223 224 225 231 235 233 230 230 245 256 239 215 215 226 231 233 232 228 227 231 234 239 242 242 239 236 234 229 225 225 224 223 222 220 218 216 217 216 217 219 220 220 219 220 222 225 227 230 233 235 237 241 244 247
225 232 219 208 212 212 211 213 212 214 216 212 212 218 220 220 225 231 237 235 234 241 233 233 238 234 228 229 224 226 227 219 220 223 225 232 232 231 232 233 241 245 233 221 218 224 229 234 235 231 227 229 232 237 242 244 241 235 231 225 221 224 224 224 225 223 221 219 219 220 221 223 224 224 224 223 226 229 232 235 237 240 244 246 247 251
226 235 225 209 214 212 205 209 214 215 218 221 221 218 214 217 222 224 229 232 230 237 233 233 238 236 234 230 222 227 226 218 219 223 225 231 231 227 227 234 243 237 229 230 224 222 227 232 235 233 228 229 231 234 239 240 239 235 230 224 221 222 224 224 225 225 225 223 223 224 225 227 228 229 228 228 230 233 236 239 242 245 247 249 252 256
221 228 231 213 207 204 199 205 213 213 214 220 227 225 218 219 221 221 224 229 233 238 234 233 238 238 236 231 222 224 226 221 222 224 225 228 228 229 226 228 236 235 238 248 240 230 233 236 238 236 232 232 233 234 236 236 236 233 229 225 222 221 222 223 224 224 225 226 226 227 228 229 231 233 233 234 235 238 240 243 246 248 250 253 257 261
221 218 228 218 197 196 205 208 212 213 208 211 220 224 220 219 221 222 223 224 227 238 241 233 235 236 236 232 223 218 218 223 225 222 221 221 224 230 225 221 229 235 250 267 258 239 236 238 239 236 232 233 234 233 233 235 235 233 230 225 222 222 223 224 225 224 224 226 227 229 230 231 233 236 238 239 241 243 245 246 249 251 254 257 261 265
219 213 220 220 200 200 214 216 213 216 214 210 214 219 221 219 217 219 224 223 224 230 238 240 241 234 231 231 229 222 217 222 224 216 211 213 218 224 226 225 227 233 247 267 271 247 231 231 234 233 230 231 235 235 231 232 234 232 231 227 223 223 224 226 228 227 226 227 229 230 231 233 235 237 240 243 245 248 249 250 252 256 259 262 265 269
217 218 219 223 215 210 218 221 218 218 221 221 218 218 222 223 221 221 225 223 223 227 232 238 244 236 228 228 229 222 218 221 220 211 207 210 213 222 233 229 220 232 244 256 269 256 230 228 230 231 231 231 236 238 232 231 234 233 232 229 226 226 226 228 231 230 229 229 231 233 234 235 237 238 240 244 246 249 251 253 258 260 263 266 269 271
211 221 222 222 229 228 222 221 222 220 220 225 224 219 219 221 223 225 227 225 227 229 228 232 240 234 231 234 232 222 220 222 220 216 215 217 220 227 237 232 225 236 242 249 267 265 241 230 228 229 230 229 232 237 234 233 233 232 232 231 229 229 229 230 233 234 233 232 232 234 235 237 239 240 242 244 247 250 252 257 264 264 262 265 269 270
205 215 220 220 225 226 220 214 215 214 213 219 223 219 219 221 221 224 228 230 231 230 228 232 239 232 230 234 235 232 226 221 219 220 222 225 227 229 237 240 231 230 236 254 269 265 252 239 232 231 231 228 231 236 235 235 235 232 233 235 233 232 230 230 233 236 237 236 234 235 235 237 239 241 242 244 248 252 254 260 267 267 264 265 269 271
207 210 213 219 221 213 213 211 208 208 210 216 222 221 221 221 219 220 225 229 232 230 229 236 240 235 228 227 230 231 223 211 210 217 224 227 227 227 234 240 229 227 242 265 269 266 264 252 238 233 233 230 231 232 233 236 237 234 235 236 234 232 230 229 232 237 240 237 235 236 236 236 239 241 243 246 250 254 257 261 267 271 272 271 272 274
217 217 214 219 226 223 220 219 212 211 213 215 219 223 224 222 219 220 224 228 231 230 232 237 240 240 236 229 228 227 221 216 216 224 235 232 223 221 226 231 231 236 252 266 268 271 273 262 245 236 234 231 229 228 228 232 236 237 237 235 232 231 231 230 232 236 240 238 236 236 237 237 239 242 245 248 252 255 259 261 265 270 273 275 274 275
223 228 220 219 226 230 233 231 220 219 223 220 218 221 224 224 221 222 224 228 231 232 234 235 234 238 241 239 236 230 223 223 228 235 238 231 220 217 220 229 236 241 251 261 265 268 271 265 253 243 237 233 228 224 222 227 234 237 236 233 230 231 231 230 231 234 238 239 236 236 238 238 239 242 246 249 252 255 259 261 263 267 271 274 274 275
221 231 223 218 224 229 236 241 234 229 231 229 225 225 224 225 226 227 228 229 229 232 236 236 231 233 237 238 238 236 229 225 229 235 232 224 222 227 227 231 239 245 252 258 257 260 269 268 257 252 245 235 227 222 219 223 229 232 232 227 224 226 227 227 229 231 234 237 238 239 239 238 239 242 246 251 254 256 260 263 265 268 272 276 276 276
220 227 222 222 230 231 232 238 238 237 236 231 230 231 228 227 228 230 233 232 232 235 238 238 237 235 235 233 234 236 236 231 228 228 228 225 228 233 229 228 234 242 253 257 250 248 263 270 264 260 253 238 226 220 217 220 225 227 226 221 217 219 221 223 226 227 230 234 238 241 241 239 240 245 249 253 257 261 264 267 269 271 275 279 277 274
218 226 225 228 240 240 233 234 236 237 238 236 234 234 231 231 230 230 232 233 234 237 238 239 241 240 236 233 231 231 235 239 237 228 226 227 228 230 230 230 233 237 248 256 251 243 253 268 266 258 253 241 226 218 216 218 220 222 223 219 215 216 219 222 224 226 228 231 235 238 240 242 246 250 253 257 261 265 268 271 272 273 276 279 277 274
215 223 225 227 238 242 236 236 238 237 238 240 240 237 233 233 232 231 232 232 232 235 237 239 241 239 235 233 232 229 231 238 240 235 229 226 223 226 230 234 238 238 243 251 249 244 253 271 268 252 248 242 226 216 215 216 216 217 218 217 215 216 219 223 225 225 226 228 231 236 241 246 250 254 257 260 263 266 268 270 273 276 277 279 279 278
213 217 220 222 232 238 235 237 241 239 239 239 237 236 235 235 235 234 233 232 232 232 234 237 239 240 237 234 234 232 228 232 236 235 234 233 231 233 237 239 240 239 245 252 251 248 259 272 269 250 243 241 226 216 214 214 214 216 216 215 216 217 220 224 224 225 226 229 234 238 243 248 252 255 258 261 263 266 268 271 274 276 277 277 278 278
213 214 216 220 230 237 234 234 239 240 237 236 235 234 237 239 240 241 238 235 234 234 235 238 240 242 240 236 235 235 233 233 234 235 237 239 240 242 243 244 243 240 244 252 251 251 260 269 265 248 240 237 225 216 215 215 215 218 218 216 217 220 223 225 225 226 228 232 236 240 244 248 252 255 257 259 262 265 268 270 272 273 274 276 277 279
212 211 215 220 227 234 233 230 233 235 236 239 239 235 236 239 242 247 248 243 238 236 238 241 241 240 239 238 237 236 236 237 237 239 240 241 242 243 242 242 242 240 241 245 246 251 261 269 262 244 236 232 221 214 215 216 217 220 220 219 221 224 226 226 226 226 229 232 236 240 244 247 251 254 256 258 260 263 265 269 273 276 280 282 282 282
211 208 213 220 222 226 228 225 229 239 241 243 244 238 236 238 241 249 255 250 241 239 240 241 242 241 239 239 239 238 237 238 239 240 241 240 240 240 238 238 238 239 242 243 244 249 258 266 259 240 234 230 218 213 215 217 217 220 221 222 224 226 226 225 225 226 228 231 236 239 242 246 250 253 255 255 255 258 264 274 282 287 291 292 290 286
214 208 210 216 218 221 227 230 238 250 249 243 241 235 229 228 232 251 264 254 242 240 242 242 242 243 243 241 239 237 236 238 241 241 240 239 239 238 236 236 237 238 239 242 245 249 252 259 256 240 233 227 216 212 215 216 216 219 221 222 224 225 225 224 224 226 227 229 234 238 241 246 249 251 252 252 254 260 272 282 289 294 299 299 294 290
218 214 212 216 219 220 227 234 240 248 245 232 220 206 210 220 228 255 267 257 244 241 248 248 245 244 245 244 240 237 235 238 242 242 239 236 235 234 233 232 232 232 232 235 241 247 249 252 251 241 235 227 216 213 216 216 216 218 221 223 225 225 225 224 224 224 225 227 232 237 241 246 248 250 251 253 259 270 279 287 292 298 302 301 296 291
218 216 215 220 223 220 224 232 232 231 232 224 219 228 242 239 239 254 263 259 249 245 250 254 250 248 246 243 240 238 237 238 241 240 236 234 233 233 233 231 227 225 228 233 237 243 246 247 246 241 240 232 219 215 217 218 218 220 222 224 226 226 225 223 222 221 223 227 233 238 242 245 247 249 253 259 267 276 283 290 296 302 304 301 297 293
215 213 212 217 222 221 224 232 236 236 236 225 221 228 237 231 225 230 243 249 242 235 238 243 246 249 250 245 240 239 237 237 239 238 237 239 241 236 234 235 230 226 229 234 236 238 241 244 243 242 246 242 227 218 217 218 219 221 223 225 226 224 222 220 220 221 225 230 234 238 240 243 247 253 259 267 274 280 287 294 301 305 304 300 298 296
212 212 211 214 218 219 222 230 238 240 239 227 218 217 220 223 223 226 234 241 236 226 229 234 236 241 245 246 244 241 239 239 241 241 240 243 242 232 229 233 231 228 231 235 235 235 239 243 244 244 244 245 235 223 219 218 218 219 222 222 221 219 218 218 220 223 226 229 232 235 239 243 250 257 265 273 278 284 292 299 304 306 303 299 299 297
206 208 211 214 217 219 221 228 237 242 240 233 223 219 224 231 234 236 239 245 247 241 236 235 236 236 238 243 244 239 239 243 241 238 240 241 237 231 231 235 234 230 231 235 236 237 240 242 243 243 241 241 238 226 219 217 217 217 218 218 216 216 216 217 219 221 223 225 230 236 242 248 255 263 270 277 283 291 298 301 304 304 302 300 300 297
203 203 207 212 214 216 220 226 233 235 228 219 212 214 226 235 244 247 245 249 256 254 248 245 246 242 239 243 242 233 234 244 242 236 238 240 239 238 238 238 237 232 230 233 235 236 238 239 240 240 238 236 230 221 216 214 214 214 215 215 214 214 215 215 216 217 218 224 235 245 252 257 263 269 275 282 290 297 300 301 302 301 300 301 300 296
203 204 210 211 209 213 219 222 227 231 215 199 200 214 229 238 244 247 253 263 269 266 259 253 253 254 255 258 254 238 231 232 232 233 236 239 241 244 243 241 240 237 232 232 233 233 235 236 236 233 230 227 221 215 212 210 210 211 212 212 211 211 211 211 211 213 222 238 252 260 262 266 271 277 282 289 293 296 298 299 299 299 300 300 298 294
201 207 213 211 208 215 222 218 211 207 183 184 205 219 230 240 245 250 261 274 277 276 271 262 258 261 265 268 266 247 233 229 229 232 234 236 240 244 243 242 243 242 238 235 234 234 234 232 228 225 223 219 213 208 206 204 204 206 206 205 205 205 205 208 213 222 238 251 259 264 267 272 279 284 288 293 294 295 296 297 297 298 299 298 294 291
203 206 208 206 202 210 222 222 204 184 157 174 209 219 224 237 246 251 260 272 278 277 276 271 265 266 273 274 266 243 231 232 234 235 236 239 243 245 245 245 245 244 242 238 234 233 231 226 223 221 217 209 202 199 197 195 195 197 199 200 202 203 206 216 228 238 249 256 261 266 273 280 286 289 292 293 293 294 295 294 294 295 295 292 290 288
208 202 202 206 209 214 218 214 195 181 165 168 200 217 226 239 250 256 265 278 283 278 281 287 274 265 270 268 246 219 207 213 223 231 236 241 246 247 247 246 243 239 234 228 224 220 215 210 207 205 201 196 192 190 190 189 189 193 197 199 204 212 222 235 245 253 259 262 265 271 278 285 290 292 293 293 292 292 292 291 290 290 288 287 285 283
208 203 203 206 213 216 206 191 198 209 204 200 216 232 242 248 251 253 259 272 288 113 139 160 174 174 167 173 182 183 182 183 191 206 219 228 234 233 226 224 227 223 215 208 203 198 193 190 188 187 186 185 183 182 184 187 190 194 199 206 218 230 240 248 255 260 262 262 266 276 284 290 293 294 293 291 289 288 287 286 285 284 282 282 281 281
193 196 205 204 205 209 197 190 211 227 224 223 236 246 249 254 256 255 253 244 179 124 134 160 159 143 139 143 143 148 155 156 159 173 184 189 197 199 191 187 194 197 193 187 181 175 174 175 176 177 178 178 179 181 186 192 198 204 211 220 231 239 244 248 253 257 259 262 272 282 289 293 293 292 290 287 285 284 282 280 279 279 278 278 279 281
180 178 190 198 199 196 191 189 198 211 220 224 232 241 242 246 251 252 247 227 182 150 146 155 159 164 169 164 158 162 165 159 153 161 168 165 162 163 162 162 165 167 166 164 163 163 166 168 170 173 175 178 182 187 193 201 208 213 220 227 235 242 247 252 258 265 272 279 284 289 291 291 288 286 285 283 280 279 278 276 276 276 277 279 279 278
181 175 171 180 195 181 173 182 190 197 211 211 208 215 213 204 208 215 204 177 159 150 147 148 147 147 151 152 150 153 154 150 146 148 149 147 146 148 150 151 153 154 155 156 159 162 165 168 171 175 178 182 188 193 200 207 212 218 225 231 240 252 265 274 280 286 289 289 290 291 290 286 282 282 282 280 277 275 274 274 276 278 279 279 277 272
Height
3144 3144 3143 3143 3144 3147 3149 3151 3153 3154 3154 3153 3153 3153 3155 3155 3153 3154 3156 3158 3161 3163 3164 3165 3167 3168 3168 3169 3170 3171 3172 3173 3174 3175 3175 3176 3177 3177 3176 3177 3177 3178 3179 3181 3182 3183 3183 3184 3185 3186 3187 3188 3189 3190 3191 3192 3193 3194 3195 3196 3197 3198 3198 3199 3200 3201 3202 3203 3203 3204 3205 3206 3206 3207 3207 3208 3208 3209 3208 3208 3208 3208 3208 3208 3208 3208
3141 3140 3139 3141 3144 3147 3149 3151 3153 3154 3153 3152 3151 3150 3152 3153 3151 3151 3153 3155 3159 3161 3162 3164 3165 3166 3167 3168 3169 3169 3170 3171 3172 3172 3173 3174 3175 3175 3175 3175 3176 3176 3178 3178 3179 3180 3181 3182 3183 3184 3185 3186 3187 3188 3189 3191 3192 3193 3193 3194 3195 3196 3197 3197 3198 3199 3200 3201 3202 3203 3204 3205 3205 3205 3206 3206 3207 3207 3207 3207 3207 3207 3207 3207 3207 3206
3137 3135 3137 3141 3144 3146 3148 3149 3151 3152 3152 3151 3150 3149 3149 3150 3150 3149 3151 3153 3156 3159 3161 3163 3163 3163 3165 3166 3167 3167 3168 3169 3170 3171 3171 3172 3173 3173 3173 3173 3174 3174 3175 3176 3176 3177 3179 3180 3181 3182 3183 3184 3185 3186 3188 3189 3190 3191 3192 3193 3194 3194 3195 3196 3197 3197 3199 3200 3201 3202 3203 3203 3204 3204 3204 3205 3205 3206 3205 3206 3206 3206 3206 3206 3206 3205
3132 3132 3136 3140 3142 3144 3146 3147 3148 3150 3150 3149 3148 3148 3147 3147 3147 3147 3149 3152 3155 3158 3160 3162 3162 3162 3163 3164 3164 3165 3166 3167 3167 3168 3169 3170 3170 3171 3172 3172 3172 3172 3172 3173 3173 3174 3176 3177 3178 3179 3180 3182 3183 3184 3185 3186 3188 3189 3190 3191 3192 3192 3193 3194 3195 3196 3197 3198 3199 3200 3201 3202 3202 3202 3203 3203 3204 3205 3205 3205 3205 3205 3205 3205 3205 3204
3129 3131 3135 3138 3140 3141 3143 3144 3146 3146 3147 3147 3146 3146 3145 3145 3145 3145 3148 3152 3155 3157 3159 3161 3160 3159 3159 3160 3161 3162 3163 3164 3165 3166 3167 3168 3168 3168 3169 3170 3170 3169 3170 3170 3171 3171 3173 3174 3175 3176 3178 3179 3180 3181 3183 3184 3185 3187 3188 3189 3190 3190 3191 3192 3193 3194 3196 3196 3197 3198 3199 3200 3200 3200 3201 3202 3203 3204 3204 3204 3204 3204 3204 3204 3204 3204
3128 3131 3133 3135 3137 3139 3140 3140 3142 3143 3144 3144 3143 3144 3145 3144 3144 3145 3146 3149 3153 3153 3155 3159 3158 3155 3156 3157 3158 3159 3160 3161 3162 3163 3164 3165 3166 3166 3166 3167 3167 3167 3167 3167 3168 3169 3170 3172 3173 3174 3175 3176 3178 3179 3181 3182 3183 3185 3186 3187 3187 3188 3189 3190 3191 3193 3194 3194 3196 3197 3197 3198 3199 3199 3200 3201 3202 3203 3203 3203 3203 3203 3204 3203 3203 3203
3126 3129 3130 3132 3133 3136 3137 3137 3138 3141 3141 3139 3140 3143 3145 3144 3144 3144 3143 3145 3148 3149 3152 3156 3155 3152 3153 3154 3155 3156 3157 3158 3159 3160 3161 3162 3163 3163 3163 3164 3164 3164 3165 3165 3166 3167 3167 3169 3170 3171 3172 3174 3175 3177 3179 3180 3181 3182 3183 3184 3185 3186 3187 3188 3189 3190 3191 3192 3194 3195 3196 3197 3197 3198 3199 3200 3201 3201 3202 3202 3202 3203 3203 3202 3202 3202
3122 3126 3127 3128 3130 3132 3133 3133 3135 3138 3138 3136 3138 3142 3143 3144 3144 3142 3141 3142 3144 3148 3150 3152 3152 3151 3151 3150 3151 3153 3154 3155 3156 3156 3158 3158 3159 3160 3160 3161 3161 3161 3162 3163 3163 3164 3165 3166 3167 3168 3170 3171 3173 3175 3176 3177 3178 3180 3181 3182 3183 3184 3185 3186 3187 3188 3189 3191 3192 3193 3194 3195 3196 3197 3198 3198 3199 3199 3200 3201 3201 3201 3202 3201 3202 3202
3120 3122 3123 3125 3127 3127 3128 3129 3133 3136 3135 3135 3138 3140 3140 3142 3143 3141 3141 3140 3143 3146 3146 3147 3149 3149 3148 3148 3149 3149 3149 3150 3152 3153 3155 3156 3156 3157 3158 3158 3159 3159 3159 3160 3161 3162 3163 3164 3165 3166 3167 3169 3171 3172 3173 3175 3176 3177 3178 3180 3181 3182 3183 3184 3185 3186 3187 3189 3190 3191 3192 3193 3194 3195 3196 3197 3198 3198 3199 3199 3200 3200 3200 3201 3201 3201
3118 3119 3121 3123 3123 3123 3125 3128 3132 3133 3133 3135 3138 3138 3138 3139 3140 3140 3139 3139 3140 3140 3139 3142 3145 3144 3144 3145 3146 3145 3145 3146 3148 3150 3152 3153 3154 3154 3155 3157 3158 3158 3157 3157 3158 3160 3161 3162 3163 3164 3165 3167 3169 3170 3171 3172 3173 3174 3176 3177 3178 3180 3181 3182 3183 3184 3186 3187 3188 3189 3190 3191 3193 3194 3195 3196 3196 3196 3197 3198 3198 3199 3199 3200 3200 3200
3116 3117 3119 3119 3119 3122 3125 3127 3129 3131 3132 3136 3137 3137 3136 3134 3136 3137 3137 3138 3135 3131 3132 3136 3138 3140 3139 3139 3141 3141 3142 3143 3145 3148 3150 3151 3151 3150 3152 3154 3156 3157 3156 3155 3156 3157 3159 3160 3161 3162 3163 3165 3166 3167 3168 3169 3170 3171 3173 3175 3176 3178 3179 3180 3181 3183 3184 3185 3186 3188 3189 3190 3191 3192 3193 3194 3194 3195 3196 3197 3197 3198 3198 3199 3199 3199
3114 3114 3114 3115 3117 3120 3123 3125 3126 3129 3131 3133 3134 3135 3133 3131 3134 3135 3134 3135 3130 3126 3129 3132 3133 3135 3133 3133 3136 3137 3138 3140 3143 3145 3146 3148 3148 3148 3149 3151 3151 3154 3154 3153 3154 3155 3156 3158 3159 3160 3161 3162 3164 3165 3166 3167 3168 3169 3170 3172 3174 3175 3177 3178 3180 3181 3182 3183 3185 3186 3187 3189 3190 3191 3192 3192 3193 3194 3195 3195 3196 3196 3197 3197 3198 3198
3110 3110 3111 3113 3115 3117 3119 3121 3122 3125 3127 3129 3131 3132 3128 3127 3132 3131 3128 3127 3125 3125 3128 3130 3130 3128 3126 3130 3134 3134 3136 3138 3139 3142 3143 3145 3146 3146 3146 3147 3148 3151 3151 3150 3151 3152 3153 3155 3156 3158 3159 3160 3161 3163 3164 3165 3166 3167 3168 3170 3172 3173 3175 3176 3178 3179 3180 3182 3183 3184 3186 3187 3188 3189 3190 3191 3192 3192 3193 3194 3195 3195 3196 3196 3197 3197
3105 3107 3108 3109 3110 3111 3114 3115 3116 3118 3121 3123 3125 3125 3122 3122 3126 3127 3124 3122 3121 3123 3126 3129 3127 3122 3122 3127 3130 3131 3134 3135 3136 3139 3141 3142 3143 3143 3144 3145 3146 3148 3149 3148 3148 3149 3150 3152 3153 3155 3156 3158 3159 3160 3162 3163 3164 3165 3166 3168 3170 3172 3173 3175 3176 3178 3179 3180 3182 3183 3184 3186 3187 3188 3189 3189 3190 3191 3192 3192 3193 3194 3194 3195 3196 3196
3099 3098 3099 3101 3104 3106 3108 3110 3111 3115 3117 3118 3120 3122 3119 3119 3121 3120 3119 3119 3120 3121 3123 3125 3122 3118 3120 3123 3125 3128 3131 3133 3134 3136 3138 3139 3140 3142 3143 3143 3142 3145 3147 3146 3145 3146 3148 3149 3151 3152 3154 3155 3157 3158 3159 3161 3162 3163 3164 3166 3168 3170 3171 3173 3175 3176 3177 3179 3180 3182 3183 3184 3185 3186 3187 3188 3188 3189 3190 3191 3192 3192 3193 3194 3194 3194
3094 3092 3094 3098 3101 3103 3103 3106 3111 3114 3113 3114 3119 3118 3114 3117 3120 3116 3114 3117 3119 3118 3117 3118 3115 3116 3120 3121 3123 3126 3127 3130 3132 3134 3135 3136 3137 3139 3141 3141 3140 3141 3142 3141 3142 3144 3145 3147 3148 3149 3151 3153 3154 3156 3157 3158 3159 3161 3163 3164 3166 3168 3170 3171 3173 3174 3176 3177 3179 3180 3181 3182 3183 3184 3185 3186 3186 3187 3188 3189 3190 3191 3191 3192 3192 3192
3090 3089 3092 3095 3097 3099 3100 3103 3108 3109 3108 3110 3114 3110 3109 3116 3119 3116 3114 3116 3117 3113 3110 3111 3110 3112 3116 3117 3120 3123 3124 3127 3129 3131 3133 3133 3134 3136 3138 3139 3139 3138 3138 3137 3139 3141 3143 3144 3146 3147 3148 3150 3151 3153 3154 3155 3157 3159 3161 3163 3165 3166 3168 3169 3171 3173 3174 3175 3177 3178 3179 3180 3181 3182 3183 3184 3185 3186 3187 3187 3188 3189 3189 3190 3190 3189
3087 3086 3088 3091 3092 3095 3099 3102 3104 3105 3106 3106 3105 3106 3111 3116 3116 3114 3112 3111 3112 3108 3105 3108 3107 3107 3109 3110 3114 3119 3121 3123 3126 3128 3129 3130 3132 3133 3134 3136 3136 3135 3135 3135 3137 3139 3140 3142 3143 3144 3146 3147 3149 3151 3152 3154 3156 3158 3159 3161 3163 3164 3166 3168 3169 3171 3172 3173 3175 3176 3178 3178 3180 3181 3182 3183 3183 3184 3185 3185 3187 3187 3187 3187 3187 3187
3086 3085 3084 3087 3089 3092 3097 3100 3100 3101 3103 3102 3102 3104 3108 3108 3107 3108 3107 3105 3107 3104 3102 3105 3104 3102 3104 3105 3110 3115 3116 3119 3123 3125 3126 3127 3129 3129 3130 3132 3134 3134 3134 3134 3136 3137 3138 3139 3140 3142 3144 3145 3147 3148 3150 3152 3153 3155 3157 3159 3161 3162 3164 3166 3167 3168 3170 3171 3173 3174 3175 3177 3178 3179 3180 3181 3181 3182 3183 3184 3185 3185 3185 3185 3185 3185
3084 3084 3082 3083 3087 3090 3093 3095 3093 3094 3097 3100 3101 3101 3101 3100 3101 3102 3102 3103 3103 3101 3100 3102 3100 3099 3100 3102 3107 3111 3113 3116 3119 3120 3123 3125 3125 3126 3127 3129 3131 3132 3132 3132 3134 3134 3135 3137 3137 3140 3141 3143 3144 3146 3147 3149 3151 3153 3154 3157 3159 3160 3162 3163 3164 3166 3167 3169 3171 3172 3173 3175 3176 3177 3178 3179 3180 3180 3181 3182 3183 3183 3183 3183 3183 3183
3082 3082 3081 3081 3084 3086 3086 3085 3085 3087 3090 3093 3095 3094 3094 3095 3097 3099 3099 3100 3100 3099 3098 3098 3097 3096 3099 3101 3103 3107 3110 3114 3115 3116 3119 3121 3122 3123 3124 3126 3127 3128 3129 3130 3132 3133 3133 3135 3136 3137 3139 3140 3142 3143 3145 3146 3148 3150 3152 3154 3156 3158 3160 3161 3162 3164 3165 3167 3168 3169 3171 3172 3174 3175 3176 3177 3178 3179 3180 3181 3181 3180 3180 3180 3181 3181
3078 3079 3080 3078 3077 3079 3079 3080 3083 3086 3087 3088 3089 3090 3091 3091 3093 3094 3092 3092 3095 3096 3096 3095 3092 3092 3096 3099 3100 3104 3108 3111 3112 3113 3115 3117 3120 3121 3122 3123 3124 3125 3127 3128 3129 3130 3131 3132 3133 3134 3136 3137 3139 3140 3142 3144 3145 3147 3149 3151 3153 3155 3157 3158 3160 3161 3163 3164 3166 3167 3169 3170 3172 3173 3174 3175 3176 3177 3178 3179 3178 3178 3178 3178 3178 3178
3077 3077 3078 3076 3073 3074 3077 3079 3081 3083 3085 3086 3086 3087 3090 3089 3089 3088 3086 3087 3090 3091 3094 3095 3090 3088 3094 3097 3098 3101 3105 3108 3110 3111 3113 3116 3118 3120 3121 3121 3121 3122 3124 3126 3127 3128 3128 3129 3130 3131 3133 3134 3135 3137 3139 3141 3142 3144 3146 3148 3150 3152 3154 3156 3157 3159 3160 3162 3163 3165 3167 3168 3169 3171 3172 3173 3174 3175 3176 3177 3176 3176 3176 3176 3176 3176
3074 3074 3073 3074 3073 3073 3074 3077 3078 3080 3082 3082 3080 3082 3084 3084 3085 3085 3085 3088 3088 3085 3089 3091 3084 3085 3093 3096 3097 3100 3103 3106 3108 3110 3112 3114 3116 3117 3118 3119 3120 3120 3122 3123 3124 3126 3126 3127 3127 3128 3129 3130 3132 3134 3136 3138 3140 3142 3144 3146 3148 3150 3152 3154 3155 3156 3157 3159 3161 3163 3164 3166 3167 3168 3170 3171 3172 3173 3174 3174 3173 3173 3174 3173 3172 3172
3068 3069 3070 3070 3071 3070 3070 3070 3072 3074 3075 3075 3075 3076 3078 3079 3082 3083 3085 3087 3084 3081 3086 3085 3079 3083 3092 3095 3096 3099 3101 3103 3106 3108 3110 3112 3113 3115 3115 3116 3117 3118 3119 3121 3121 3123 3124 3124 3125 3125 3126 3128 3130 3131 3134 3136 3137 3139 3141 3143 3145 3148 3149 3151 3153 3153 3155 3157 3158 3160 3162 3163 3164 3166 3167 3169 3169 3170 3171 3172 3171 3170 3170 3170 3169 3169
3063 3064 3066 3065 3063 3063 3062 3061 3063 3066 3069 3071 3072 3073 3074 3075 3077 3079 3083 3082 3077 3079 3084 3080 3076 3082 3090 3092 3094 3096 3098 3101 3103 3105 3108 3109 3110 3112 3113 3113 3114 3115 3117 3118 3119 3121 3122 3122 3122 3123 3124 3126 3127 3129 3131 3133 3134 3137 3139 3141 3143 3145 3147 3149 3150 3151 3152 3154 3156 3157 3159 3161 3162 3164 3165 3166 3167 3167 3168 3169 3168 3166 3166 3168 3167 3166
3061 3060 3061 3061 3059 3059 3059 3059 3062 3065 3066 3067 3069 3070 3071 3072 3074 3077 3078 3075 3074 3079 3080 3077 3079 3084 3086 3088 3090 3092 3095 3098 3101 3103 3104 3105 3106 3108 3109 3111 3112 3113 3114 3115 3117 3118 3119 3120 3120 3120 3121 3123 3124 3126 3129 3131 3132 3134 3136 3139 3141 3142 3144 3146 3147 3148 3149 3151 3153 3155 3156 3158 3160 3161 3163 3163 3164 3164 3165 3166 3165 3163 3163 3164 3164 3163
3058 3055 3055 3058 3059 3059 3060 3060 3062 3063 3062 3062 3065 3067 3068 3069 3071 3072 3071 3070 3074 3076 3073 3075 3082 3083 3083 3086 3087 3088 3091 3094 3097 3100 3101 3102 3104 3106 3107 3108 3109 3110 3110 3112 3114 3115 3116 3117 3117 3118 3119 3120 3122 3123 3126 3128 3131 3132 3134 3137 3138 3140 3141 3143 3144 3145 3146 3148 3150 3152 3154 3156 3158 3159 3159 3160 3161 3161 3161 3162 3163 3161 3160 3161 3161 3160
3055 3053 3052 3055 3057 3059 3060 3059 3060 3061 3060 3060 3062 3064 3066 3067 3067 3067 3067 3069 3072 3071 3069 3074 3079 3079 3081 3084 3085 3086 3089 3091 3094 3096 3098 3100 3101 3103 3104 3105 3106 3107 3107 3108 3110 3112 3113 3114 3115 3116 3117 3118 3119 3121 3123 3126 3128 3130 3132 3134 3135 3137 3138 3139 3141 3142 3144 3145 3147 3150 3152 3154 3155 3155 3156 3156 3157 3158 3158 3159 3160 3159 3157 3158 3158 3158
3053 3051 3052 3054 3054 3056 3058 3058 3058 3059 3058 3059 3060 3060 3062 3063 3064 3065 3065 3067 3069 3067 3069 3074 3075 3075 3078 3081 3082 3085 3086 3088 3091 3093 3094 3097 3098 3100 3101 3102 3103 3104 3105 3105 3106 3108 3109 3111 3112 3113 3114 3115 3116 3118 3121 3123 3125 3127 3129 3131 3132 3134 3135 3136 3138 3140 3142 3143 3145 3147 3149 3151 3152 3152 3153 3153 3154 3154 3155 3156 3157 3156 3155 3155 3156 3154
3050 3049 3051 3054 3053 3052 3054 3055 3056 3056 3056 3055 3056 3056 3058 3059 3060 3061 3062 3064 3065 3065 3068 3071 3070 3071 3075 3077 3080 3082 3083 3084 3086 3089 3090 3092 3094 3096 3098 3099 3101 3102 3103 3102 3102 3104 3105 3107 3109 3110 3111 3113 3114 3116 3118 3120 3122 3124 3126 3128 3129 3131 3132 3133 3135 3137 3139 3141 3143 3144 3146 3147 3148 3149 3150 3150 3151 3151 3152 3153 3154 3154 3153 3153 3152 3151
3048 3048 3050 3052 3051 3049 3051 3053 3053 3053 3054 3053 3051 3052 3053 3054 3055 3056 3057 3060 3061 3062 3065 3067 3065 3066 3072 3076 3077 3079 3080 3080 3081 3084 3087 3088 3090 3092 3094 3096 3097 3099 3101 3101 3100 3101 3101 3103 3106 3107 3108 3110 3111 3113 3115 3117 3119 3121 3122 3124 3126 3128 3129 3131 3133 3135 3137 3139 3140 3141 3143 3144 3145 3146 3146 3147 3148 3148 3149 3150 3151 3151 3150 3150 3149 3147
3044 3045 3047 3049 3048 3046 3049 3051 3051 3052 3052 3047 3045 3047 3049 3050 3051 3051 3052 3055 3057 3059 3061 3061 3061 3065 3070 3073 3073 3075 3077 3077 3077 3080 3082 3084 3087 3088 3090 3092 3093 3095 3098 3097 3098 3098 3097 3099 3103 3104 3104 3106 3108 3110 3112 3113 3115 3117 3119 3121 3123 3125 3126 3127 3130 3132 3134 3136 3137 3138 3140 3141 3141 3143 3143 3144 3145 3145 3146 3147 3147 3147 3147 3146 3145 3143
3039 3041 3043 3045 3045 3044 3046 3049 3049 3048 3042 3037 3039 3045 3047 3047 3048 3047 3047 3050 3052 3055 3056 3057 3060 3064 3067 3068 3069 3070 3072 3073 3075 3076 3078 3080 3082 3083 3086 3088 3088 3091 3094 3094 3094 3095 3093 3095 3099 3100 3100 3102 3104 3107 3109 3110 3112 3114 3116 3118 3120 3121 3123 3124 3127 3129 3131 3132 3134 3135 3137 3137 3138 3139 3140 3141 3141 3142 3143 3143 3144 3144 3143 3142 3141 3139
3035 3037 3040 3042 3042 3041 3043 3046 3044 3038 3033 3034 3040 3044 3045 3046 3046 3046 3045 3045 3047 3050 3052 3053 3056 3060 3062 3063 3065 3066 3068 3069 3070 3072 3073 3075 3077 3078 3081 3082 3083 3086 3090 3091 3091 3091 3089 3091 3095 3096 3097 3098 3100 3102 3105 3106 3108 3110 3112 3115 3117 3118 3120 3122 3124 3126 3128 3129 3131 3132 3133 3134 3135 3136 3137 3138 3138 3138 3139 3139 3140 3140 3139 3138 3137 3135
3032 3034 3037 3038 3038 3039 3040 3040 3037 3032 3032 3037 3040 3040 3041 3043 3044 3044 3042 3041 3043 3047 3048 3049 3052 3055 3058 3059 3061 3062 3064 3065 3066 3066 3067 3069 3070 3072 3074 3076 3078 3081 3085 3087 3087 3086 3086 3089 3092 3092 3093 3094 3096 3099 3101 3103 3105 3107 3109 3111 3113 3115 3117 3119 3121 3123 3125 3126 3128 3129 3130 3131 3132 3133 3133 3134 3134 3135 3135 3135 3136 3135 3135 3134 3132 3131
3030 3031 3034 3035 3035 3036 3036 3035 3034 3033 3034 3036 3036 3036 3038 3039 3041 3042 3040 3038 3039 3042 3044 3047 3049 3051 3053 3054 3057 3059 3061 3061 3061 3061 3061 3063 3064 3066 3069 3071 3073 3077 3080 3082 3082 3081 3083 3086 3088 3088 3088 3090 3092 3095 3097 3099 3101 3103 3105 3108 3110 3111 3113 3115 3117 3119 3121 3123 3125 3126 3127 3128 3128 3129 3129 3130 3131 3131 3132 3131 3131 3131 3130 3129 3128 3126
3028 3029 3031 3032 3032 3033 3034 3033 3033 3033 3032 3031 3033 3034 3035 3037 3039 3040 3039 3037 3038 3040 3042 3044 3046 3049 3050 3051 3053 3056 3057 3057 3056 3055 3057 3059 3060 3062 3064 3066 3068 3072 3075 3075 3076 3076 3078 3082 3085 3084 3085 3087 3088 3091 3093 3095 3097 3100 3102 3104 3106 3108 3110 3112 3114 3116 3118 3120 3121 3123 3124 3124 3125 3125 3126 3126 3127 3128 3128 3128 3127 3127 3126 3125 3124 3122
3026 3027 3029 3030 3030 3031 3031 3029 3028 3029 3029 3029 3030 3032 3034 3035 3037 3039 3040 3038 3039 3041 3041 3041 3042 3044 3046 3047 3050 3052 3053 3051 3050 3051 3054 3056 3057 3058 3060 3061 3063 3067 3068 3068 3070 3072 3074 3078 3080 3081 3082 3083 3084 3087 3090 3092 3095 3097 3099 3101 3103 3105 3107 3109 3111 3113 3115 3117 3118 3119 3120 3121 3121 3122 3122 3123 3124 3124 3124 3123 3123 3122 3122 3120 3119 3118
3022 3023 3025 3025 3025 3027 3029 3027 3025 3026 3027 3028 3029 3031 3034 3034 3036 3040 3040 3036 3036 3038 3038 3038 3039 3040 3040 3042 3045 3047 3047 3045 3045 3049 3052 3053 3054 3055 3056 3057 3058 3061 3063 3063 3065 3068 3070 3073 3075 3077 3079 3080 3082 3084 3087 3089 3092 3094 3096 3098 3100 3102 3104 3106 3109 3111 3112 3114 3115 3116 3117 3118 3118 3118 3119 3119 3120 3120 3119 3118 3118 3118 3117 3116 3115 3114
3016 3018 3019 3020 3021 3023 3025 3025 3024 3024 3025 3026 3027 3031 3034 3035 3036 3036 3034 3032 3034 3035 3035 3036 3037 3037 3038 3039 3041 3041 3042 3042 3044 3047 3049 3049 3050 3051 3051 3052 3054 3057 3058 3058 3060 3063 3066 3069 3071 3073 3075 3077 3079 3081 3083 3085 3088 3091 3093 3095 3097 3099 3101 3104 3106 3108 3109 3111 3112 3113 3114 3114 3114 3115 3115 3115 3116 3115 3115 3114 3113 3113 3113 3112 3111 3110
3010 3012 3014 3015 3016 3019 3022 3022 3022 3023 3022 3023 3026 3029 3031 3033 3033 3031 3030 3031 3032 3032 3032 3033 3033 3033 3035 3036 3037 3038 3039 3040 3043 3044 3044 3044 3046 3047 3047 3049 3051 3053 3054 3054 3056 3060 3062 3065 3067 3069 3070 3073 3075 3077 3079 3082 3084 3087 3090 3091 3093 3096 3098 3101 3103 3104 3106 3107 3109 3110 3111 3111 3111 3111 3111 3111 3111 3111 3110 3110 3109 3109 3109 3108 3107 3106
3003 3005 3007 3009 3012 3015 3018 3019 3019 3019 3019 3021 3025 3028 3028 3029 3028 3027 3027 3029 3029 3029 3030 3030 3030 3030 3031 3031 3033 3034 3036 3039 3040 3039 3039 3041 3042 3044 3045 3046 3047 3048 3050 3052 3054 3056 3058 3060 3062 3064 3066 3068 3070 3072 3075 3078 3081 3083 3085 3087 3090 3093 3096 3098 3099 3101 3102 3104 3105 3107 3108 3108 3108 3108 3107 3107 3107 3107 3106 3106 3105 3105 3104 3103 3103 3102
3000 3003 3004 3005 3009 3011 3013 3014 3015 3016 3017 3020 3023 3024 3024 3025 3025 3025 3025 3026 3025 3026 3028 3027 3027 3027 3027 3028 3029 3031 3033 3035 3034 3033 3034 3037 3038 3039 3041 3042 3043 3045 3047 3049 3050 3052 3053 3056 3058 3060 3062 3064 3066 3069 3072 3074 3077 3079 3082 3085 3089 3091 3093 3094 3095 3096 3098 3100 3102 3105 3106 3105 3105 3104 3104 3103 3103 3103 3103 3103 3102 3101 3100 3100 3099 3099
2998 3000 3000 3002 3006 3009 3009 3010 3012 3014 3015 3017 3020 3021 3022 3022 3022 3023 3024 3023 3022 3023 3024 3024 3024 3024 3024 3024 3025 3027 3029 3029 3028 3027 3030 3032 3033 3034 3036 3038 3040 3041 3043 3044 3045 3047 3049 3051 3054 3055 3057 3060 3063 3066 3069 3073 3075 3078 3081 3083 3085 3087 3088 3090 3091 3093 3095 3096 3099 3102 3103 3102 3101 3101 3100 3100 3099 3099 3099 3099 3098 3097 3097 3096 3095 3095
2994 2995 2997 3001 3005 3006 3006 3007 3010 3012 3014 3015 3017 3019 3020 3020 3019 3020 3021 3021 3020 3020 3022 3021 3021 3022 3021 3021 3023 3024 3025 3025 3025 3026 3028 3029 3028 3029 3031 3033 3035 3037 3038 3040 3041 3043 3045 3048 3050 3052 3054 3057 3060 3064 3067 3070 3073 3076 3078 3079 3081 3083 3085 3087 3089 3091 3092 3093 3096 3099 3099 3099 3098 3097 3097 3096 3096 3095 3095 3095 3094 3093 3093 3092 3092 3091
2994 2995 2997 3000 3003 3004 3005 3007 3009 3010 3012 3013 3015 3016 3017 3017 3017 3018 3020 3019 3018 3018 3019 3019 3019 3020 3020 3021 3021 3021 3021 3022 3023 3024 3025 3025 3025 3026 3028 3030 3031 3033 3035 3037 3038 3040 3042 3044 3047 3050 3052 3055 3058 3062 3065 3068 3071 3073 3075 3077 3079 3081 3083 3085 3087 3088 3089 3091 3094 3095 3095 3095 3094 3094 3093 3093 3092 3091 3091 3090 3090 3089 3089 3089 3089 3088
2994 2995 2997 2999 3001 3002 3004 3006 3007 3008 3010 3011 3012 3013 3014 3014 3016 3018 3019 3017 3017 3018 3018 3018 3019 3020 3020 3020 3019 3018 3019 3020 3020 3021 3023 3023 3023 3025 3027 3027 3028 3030 3032 3033 3035 3037 3040 3042 3045 3048 3051 3053 3056 3060 3063 3066 3069 3071 3073 3075 3077 3079 3081 3082 3084 3085 3086 3088 3091 3091 3091 3090 3090 3090 3089 3089 3088 3088 3087 3086 3086 3086 3086 3086 3085 3085
2992 2994 2996 2998 3000 3002 3003 3004 3006 3007 3008 3008 3010 3011 3012 3013 3014 3015 3014 3014 3015 3017 3018 3019 3019 3019 3019 3019 3019 3018 3018 3018 3018 3019 3020 3021 3022 3025 3026 3026 3027 3028 3030 3032 3034 3037 3040 3043 3046 3048 3051 3053 3056 3059 3061 3064 3067 3069 3071 3073 3074 3076 3078 3079 3080 3081 3082 3084 3086 3086 3086 3086 3085 3085 3085 3084 3084 3083 3083 3082 3083 3082 3082 3082 3082 3082
2991 2993 2994 2996 2998 3000 3002 3003 3004 3004 3005 3006 3008 3009 3011 3011 3011 3011 3011 3011 3013 3015 3017 3018 3018 3018 3018 3018 3018 3017 3017 3017 3017 3018 3018 3020 3022 3025 3026 3027 3028 3030 3031 3034 3037 3040 3042 3045 3047 3049 3051 3053 3055 3058 3060 3063 3065 3066 3068 3070 3072 3074 3076 3077 3077 3078 3078 3079 3080 3081 3081 3081 3081 3080 3080 3080 3080 3080 3079 3079 3079 3079 3079 3079 3080 3080
2991 2992 2993 2995 2997 2998 2999 3000 3002 3002 3003 3004 3006 3007 3009 3010 3009 3008 3008 3010 3012 3015 3016 3017 3017 3017 3018 3018 3018 3017 3017 3017 3017 3018 3019 3021 3024 3026 3028 3029 3030 3031 3033 3035 3038 3041 3043 3045 3047 3050 3051 3053 3055 3057 3059 3061 3063 3064 3066 3068 3070 3072 3073 3074 3074 3074 3075 3075 3075 3076 3077 3077 3076 3076 3076 3076 3076 3076 3076 3076 3076 3076 3076 3077 3077 3077